AAL910 KBOS-CYYZ

Flight info

Callsign AAL910
Flight time 1h 11m
Altitude 36000
Route HYLND7 HYLND DCT CAM Q822 GONZZ DCT WOZEE LINNG3
Aircraft A320/M-SDE3FGHIRWY/LB1

Departure

Time 2026-05-05 01:46
Airport Boston Logan International Airport (KBOS)

Arrival

Time 2026-05-05 02:57
Airport Toronto Pearson International Airport (CYYZ)
Time Latitude Longitude Altitude Speed Heading
2026-05-05 01:15 42.36122 -71.02119 26 ft 0 kts 25°
2026-05-05 01:35 42.36107 -71.02128 30 ft 3 kts 26°
2026-05-05 01:35 42.36086 -71.02143 26 ft 3 kts 34°
2026-05-05 01:36 42.36074 -71.02155 26 ft 2 kts 77°
2026-05-05 01:36 42.36075 -71.02170 31 ft 2 kts 117°
2026-05-05 01:36 42.36079 -71.02184 29 ft 2 kts 122°
2026-05-05 01:36 42.36083 -71.02190 28 ft 0 kts 120°
2026-05-05 01:38 42.36082 -71.02189 25 ft 2 kts 120°
2026-05-05 01:38 42.36045 -71.02104 27 ft 14 kts 120°
2026-05-05 01:39 42.35999 -71.02001 28 ft 12 kts 121°
2026-05-05 01:39 42.35960 -71.01913 25 ft 10 kts 121°
2026-05-05 01:39 42.35920 -71.01811 27 ft 16 kts 110°
2026-05-05 01:39 42.35899 -71.01677 29 ft 14 kts 101°
2026-05-05 01:40 42.35891 -71.01568 29 ft 9 kts 71°
2026-05-05 01:40 42.35937 -71.01526 27 ft 7 kts 22°
2026-05-05 01:40 42.36027 -71.01484 28 ft 24 kts 20°
2026-05-05 01:40 42.36213 -71.01395 27 ft 28 kts 20°
2026-05-05 01:41 42.36390 -71.01308 27 ft 26 kts 19°
2026-05-05 01:41 42.36553 -71.01229 28 ft 24 kts 20°
2026-05-05 01:41 42.36701 -71.01157 25 ft 18 kts 19°
2026-05-05 01:41 42.36802 -71.01165 25 ft 14 kts 324°
2026-05-05 01:42 42.36869 -71.01230 31 ft 10 kts 355°
2026-05-05 01:42 42.36922 -71.01183 29 ft 10 kts 40°
2026-05-05 01:42 42.37032 -71.01081 25 ft 24 kts 25°
2026-05-05 01:42 42.37175 -71.00988 27 ft 21 kts 26°
2026-05-05 01:43 42.37303 -71.00907 28 ft 19 kts 23°
2026-05-05 01:43 42.37427 -71.00847 28 ft 18 kts 19°
2026-05-05 01:43 42.37542 -71.00791 25 ft 17 kts 20°
2026-05-05 01:43 42.37650 -71.00739 28 ft 19 kts 20°
2026-05-05 01:44 42.37779 -71.00676 27 ft 16 kts 20°
2026-05-05 01:44 42.37837 -71.00588 25 ft 9 kts 101°
2026-05-05 01:44 42.37834 -71.00578 25 ft 0 kts 111°
2026-05-05 01:44 42.37828 -71.00558 28 ft 4 kts 111°
2026-05-05 01:45 42.37817 -71.00515 29 ft 9 kts 109°
2026-05-05 01:45 42.37793 -71.00474 27 ft 0 kts 200°
2026-05-05 01:45 42.37784 -71.00478 28 ft 6 kts 200°
2026-05-05 01:45 42.37558 -71.00589 29 ft 70 kts 199°
2026-05-05 01:46 42.36906 -71.00901 28 ft 127 kts 200°
2026-05-05 01:46 42.35971 -71.01348 359 ft 148 kts 200°
2026-05-05 01:46 42.34960 -71.01684 1036 ft 151 kts 187°
2026-05-05 01:46 42.33914 -71.01330 1795 ft 166 kts 159°
2026-05-05 01:47 42.33123 -71.00101 2479 ft 180 kts 130°
2026-05-05 01:47 42.32420 -70.98726 3131 ft 177 kts 136°
2026-05-05 01:47 42.31667 -70.97371 3552 ft 195 kts 125°
2026-05-05 01:47 42.31263 -70.95494 3825 ft 224 kts 92°
2026-05-05 01:48 42.31499 -70.93304 4056 ft 248 kts 79°
2026-05-05 01:48 42.31861 -70.90916 4354 ft 271 kts 78°
2026-05-05 01:48 42.32258 -70.88321 4826 ft 290 kts 78°
2026-05-05 01:48 42.32671 -70.85614 5607 ft 296 kts 77°
2026-05-05 01:49 42.33089 -70.82876 6495 ft 298 kts 77°
2026-05-05 01:49 42.33555 -70.80143 7347 ft 299 kts 69°
2026-05-05 01:49 42.34458 -70.77626 8185 ft 298 kts 52°
2026-05-05 01:49 42.35831 -70.75542 9030 ft 296 kts 36°
2026-05-05 01:50 42.37559 -70.74056 9847 ft 294 kts 20°
2026-05-05 01:50 42.39493 -70.73154 10566 ft 296 kts 13°
2026-05-05 01:50 42.41536 -70.72317 10839 ft 318 kts 11°
2026-05-05 01:50 42.43747 -70.71866 11018 ft 335 kts 357°
2026-05-05 01:51 42.46100 -70.72204 11393 ft 344 kts 342°
2026-05-05 01:51 42.48340 -70.73345 12007 ft 345 kts 330°
2026-05-05 01:51 42.50517 -70.74770 12698 ft 349 kts 330°
2026-05-05 01:51 42.52585 -70.76485 13380 ft 349 kts 319°
2026-05-05 01:52 42.54338 -70.78759 14016 ft 349 kts 307°
2026-05-05 01:52 42.55736 -70.81449 14645 ft 350 kts 301°
2026-05-05 01:52 42.57082 -70.84214 15273 ft 352 kts 301°
2026-05-05 01:52 42.58434 -70.86996 15901 ft 355 kts 301°
2026-05-05 01:53 42.59800 -70.89803 16520 ft 357 kts 301°
2026-05-05 01:53 42.61178 -70.92624 17125 ft 360 kts 301°
2026-05-05 01:53 42.62565 -70.95466 17719 ft 362 kts 301°
2026-05-05 01:53 42.63958 -70.98328 18288 ft 365 kts 301°
2026-05-05 01:54 42.65367 -71.01218 18782 ft 368 kts 301°
2026-05-05 01:54 42.66783 -71.04124 19298 ft 370 kts 301°
2026-05-05 01:54 42.68201 -71.07044 19813 ft 372 kts 301°
2026-05-05 01:54 42.69624 -71.09983 20325 ft 374 kts 301°
2026-05-05 01:55 42.71061 -71.12947 20817 ft 376 kts 301°
2026-05-05 01:55 42.72500 -71.15928 21301 ft 378 kts 301°
2026-05-05 01:55 42.73924 -71.18886 21781 ft 380 kts 301°
2026-05-05 01:55 42.75379 -71.21908 22256 ft 382 kts 301°
2026-05-05 01:56 42.76810 -71.24962 22713 ft 383 kts 298°
2026-05-05 01:56 42.77910 -71.28265 23155 ft 385 kts 288°
2026-05-05 01:56 42.78570 -71.31799 23550 ft 387 kts 279°
2026-05-05 01:56 42.78981 -71.35437 23922 ft 389 kts 279°
2026-05-05 01:57 42.79391 -71.39088 24289 ft 391 kts 279°
2026-05-05 01:57 42.79802 -71.42761 24649 ft 393 kts 279°
2026-05-05 01:57 42.80212 -71.46448 25003 ft 395 kts 279°
2026-05-05 01:57 42.80622 -71.50156 25359 ft 397 kts 279°
2026-05-05 01:58 42.81032 -71.53879 25706 ft 399 kts 279°
2026-05-05 01:58 42.81442 -71.57626 26056 ft 401 kts 279°
2026-05-05 01:58 42.81853 -71.61391 26399 ft 403 kts 279°
2026-05-05 01:58 42.82266 -71.65172 26726 ft 405 kts 279°
2026-05-05 01:59 42.82682 -71.68979 27053 ft 407 kts 279°
2026-05-05 01:59 42.83097 -71.72801 27369 ft 409 kts 279°
2026-05-05 01:59 42.83510 -71.76638 27708 ft 411 kts 279°
2026-05-05 01:59 42.83925 -71.80503 28013 ft 413 kts 280°
2026-05-05 02:00 42.84343 -71.84380 28310 ft 415 kts 280°
2026-05-05 02:00 42.84761 -71.88277 28558 ft 417 kts 279°
2026-05-05 02:00 42.85174 -71.92149 28832 ft 419 kts 279°
2026-05-05 02:00 42.85593 -71.96086 29123 ft 421 kts 279°
2026-05-05 02:01 42.86014 -72.00041 29453 ft 421 kts 280°
2026-05-05 02:01 42.86430 -72.03987 29890 ft 420 kts 280°
2026-05-05 02:01 42.86843 -72.07920 30254 ft 419 kts 280°
2026-05-05 02:01 42.87255 -72.11852 30606 ft 418 kts 280°
2026-05-05 02:02 42.87663 -72.15771 30960 ft 417 kts 280°
2026-05-05 02:02 42.88071 -72.19674 31308 ft 415 kts 280°
2026-05-05 02:02 42.88476 -72.23563 31650 ft 414 kts 280°
2026-05-05 02:02 42.88879 -72.27449 32006 ft 413 kts 280°
2026-05-05 02:03 42.89281 -72.31322 32352 ft 412 kts 281°
2026-05-05 02:03 42.89682 -72.35185 32698 ft 411 kts 281°
2026-05-05 02:03 42.90080 -72.39040 33027 ft 410 kts 281°
2026-05-05 02:03 42.90474 -72.42891 33359 ft 409 kts 281°
2026-05-05 02:04 42.90865 -72.46729 33701 ft 408 kts 281°
2026-05-05 02:04 42.91246 -72.50510 34011 ft 407 kts 280°
2026-05-05 02:04 42.91632 -72.54335 34287 ft 406 kts 280°
2026-05-05 02:04 42.92018 -72.58153 34548 ft 406 kts 280°
2026-05-05 02:05 42.92401 -72.61972 34798 ft 406 kts 280°
2026-05-05 02:05 42.92784 -72.65789 35037 ft 406 kts 279°
2026-05-05 02:05 42.93166 -72.69602 35277 ft 406 kts 279°
2026-05-05 02:05 42.93546 -72.73423 35512 ft 406 kts 279°
2026-05-05 02:06 42.93926 -72.77236 35723 ft 404 kts 279°
2026-05-05 02:06 42.94297 -72.80988 35828 ft 390 kts 279°
2026-05-05 02:06 42.94650 -72.84573 35845 ft 374 kts 279°
2026-05-05 02:06 42.94991 -72.88062 35848 ft 372 kts 279°
2026-05-05 02:07 42.95680 -72.95157 35844 ft 380 kts 279°
2026-05-05 02:07 42.96378 -73.02330 35843 ft 382 kts 279°
2026-05-05 02:08 42.97075 -73.09516 35844 ft 382 kts 279°
2026-05-05 02:08 42.97769 -73.16745 35856 ft 392 kts 279°
2026-05-05 02:09 42.98489 -73.24291 35846 ft 403 kts 278°
2026-05-05 02:09 42.99199 -73.31869 35851 ft 406 kts 278°
2026-05-05 02:10 42.99563 -73.39569 35840 ft 407 kts 274°
2026-05-05 02:10 42.99753 -73.47293 35830 ft 407 kts 274°
2026-05-05 02:11 42.99942 -73.55023 35826 ft 407 kts 274°
2026-05-05 02:11 43.00033 -73.58873 35258 ft 407 kts 270°
2026-05-05 02:11 43.00123 -73.62793 35249 ft 414 kts 271°
2026-05-05 02:12 43.00396 -73.74832 35244 ft 434 kts 273°
2026-05-05 02:13 43.00585 -73.83213 35244 ft 448 kts 272°
2026-05-05 02:13 43.00770 -73.91848 35243 ft 462 kts 271°
2026-05-05 02:14 43.00946 -74.00770 35241 ft 476 kts 271°
2026-05-05 02:14 43.01127 -74.09941 35244 ft 489 kts 271°
2026-05-05 02:15 43.01303 -74.19350 35250 ft 502 kts 271°
2026-05-05 02:15 43.01498 -74.28961 35251 ft 508 kts 272°
2026-05-05 02:16 43.01917 -74.38663 35271 ft 513 kts 275°
2026-05-05 02:16 43.02438 -74.48405 35576 ft 514 kts 274°
2026-05-05 02:16 43.02680 -74.53216 35783 ft 515 kts 274°
2026-05-05 02:17 43.02906 -74.58111 35934 ft 517 kts 274°
2026-05-05 02:17 43.03114 -74.63032 36057 ft 520 kts 274°
2026-05-05 02:17 43.03313 -74.67978 36177 ft 522 kts 274°
2026-05-05 02:17 43.03512 -74.72942 36302 ft 524 kts 274°
2026-05-05 02:18 43.03711 -74.77929 36424 ft 527 kts 274°
2026-05-05 02:18 43.03914 -74.82940 36549 ft 529 kts 274°
2026-05-05 02:18 43.04120 -74.87981 36678 ft 532 kts 274°
2026-05-05 02:18 43.04328 -74.93043 36793 ft 534 kts 274°
2026-05-05 02:19 43.04535 -74.98118 36908 ft 537 kts 274°
2026-05-05 02:19 43.04744 -75.03226 37041 ft 539 kts 274°
2026-05-05 02:19 43.04946 -75.08282 37174 ft 541 kts 274°
2026-05-05 02:20 43.05343 -75.18642 37305 ft 549 kts 274°
2026-05-05 02:20 43.05734 -75.29157 37312 ft 559 kts 274°
2026-05-05 02:21 43.06081 -75.39874 37311 ft 569 kts 272°
2026-05-05 02:21 43.06362 -75.50772 37311 ft 577 kts 272°
2026-05-05 02:22 43.06632 -75.61807 37310 ft 585 kts 272°
2026-05-05 02:22 43.06873 -75.71116 37310 ft 593 kts 273°
2026-05-05 02:23 43.07172 -75.82471 37309 ft 601 kts 272°
2026-05-05 02:23 43.07450 -75.93940 37309 ft 604 kts 272°
2026-05-05 02:24 43.07708 -76.05415 37309 ft 604 kts 272°
2026-05-05 02:24 43.07956 -76.16893 37308 ft 604 kts 272°
2026-05-05 02:25 43.08197 -76.28392 37312 ft 604 kts 272°
2026-05-05 02:25 43.08426 -76.39891 37314 ft 604 kts 272°
2026-05-05 02:26 43.08644 -76.51379 37316 ft 604 kts 272°
2026-05-05 02:26 43.08850 -76.62803 37317 ft 604 kts 272°
2026-05-05 02:27 43.08581 -76.74267 37315 ft 603 kts 263°
2026-05-05 02:27 43.07797 -76.85694 37308 ft 603 kts 266°
2026-05-05 02:28 43.07009 -76.97113 37306 ft 603 kts 264°
2026-05-05 02:28 43.06215 -77.08546 37305 ft 603 kts 264°
2026-05-05 02:29 43.05419 -77.19967 37304 ft 604 kts 264°
2026-05-05 02:29 43.04599 -77.31387 37303 ft 604 kts 264°
2026-05-05 02:30 43.03753 -77.42808 37304 ft 604 kts 264°
2026-05-05 02:30 43.02912 -77.54240 37305 ft 604 kts 264°
2026-05-05 02:31 43.02066 -77.65661 37306 ft 605 kts 264°
2026-05-05 02:31 43.01200 -77.77097 37310 ft 605 kts 264°
2026-05-05 02:32 43.00320 -77.88451 37321 ft 604 kts 264°
2026-05-05 02:32 42.99872 -77.94160 37004 ft 606 kts 263°
2026-05-05 02:32 42.99419 -77.99931 35984 ft 614 kts 263°
2026-05-05 02:32 42.98966 -78.05751 35097 ft 618 kts 263°
2026-05-05 02:33 42.98510 -78.11596 34240 ft 621 kts 263°
2026-05-05 02:33 42.98049 -78.17469 33359 ft 621 kts 263°
2026-05-05 02:33 42.97581 -78.23331 31952 ft 621 kts 263°
2026-05-05 02:33 42.97104 -78.29210 30389 ft 624 kts 262°
2026-05-05 02:34 42.96619 -78.35077 29244 ft 611 kts 264°
2026-05-05 02:34 42.96169 -78.40481 29690 ft 528 kts 264°
2026-05-05 02:34 42.95779 -78.45124 30573 ft 460 kts 264°
2026-05-05 02:34 42.95433 -78.49208 31344 ft 408 kts 264°
2026-05-05 02:35 42.95123 -78.52869 31572 ft 375 kts 264°
2026-05-05 02:35 42.94831 -78.56395 30465 ft 380 kts 264°
2026-05-05 02:35 42.94534 -78.60067 28827 ft 400 kts 264°
2026-05-05 02:35 42.94239 -78.63904 27423 ft 412 kts 266°
2026-05-05 02:36 42.94249 -78.67788 26395 ft 415 kts 274°
2026-05-05 02:36 42.94680 -78.71688 25588 ft 414 kts 281°
2026-05-05 02:36 42.95523 -78.75425 24847 ft 412 kts 289°
2026-05-05 02:36 42.96768 -78.78940 24145 ft 411 kts 297°
2026-05-05 02:37 42.98383 -78.82153 23480 ft 411 kts 305°
2026-05-05 02:37 43.00194 -78.85152 22755 ft 408 kts 305°
2026-05-05 02:37 43.01993 -78.88135 21974 ft 405 kts 305°
2026-05-05 02:37 43.03775 -78.91095 21273 ft 401 kts 305°
2026-05-05 02:38 43.05542 -78.94032 20586 ft 399 kts 305°
2026-05-05 02:38 43.07296 -78.96950 19920 ft 396 kts 305°
2026-05-05 02:38 43.09037 -78.99853 19264 ft 393 kts 305°
2026-05-05 02:38 43.10768 -79.02739 18622 ft 391 kts 305°
2026-05-05 02:39 43.12469 -79.05577 18010 ft 389 kts 305°
2026-05-05 02:39 43.14177 -79.08433 17312 ft 387 kts 305°
2026-05-05 02:39 43.15898 -79.11313 16687 ft 383 kts 305°
2026-05-05 02:39 43.17577 -79.14122 16098 ft 379 kts 305°
2026-05-05 02:40 43.19239 -79.16905 15512 ft 375 kts 305°
2026-05-05 02:40 43.20882 -79.19658 14954 ft 372 kts 305°
2026-05-05 02:40 43.22514 -79.22392 14400 ft 368 kts 305°
2026-05-05 02:40 43.24108 -79.25064 13867 ft 365 kts 305°
2026-05-05 02:41 43.25706 -79.27748 13322 ft 362 kts 305°
2026-05-05 02:41 43.27283 -79.30398 12964 ft 352 kts 305°
2026-05-05 02:41 43.28802 -79.32948 12825 ft 338 kts 306°
2026-05-05 02:41 43.30449 -79.35183 12687 ft 330 kts 317°
2026-05-05 02:42 43.32380 -79.36811 12548 ft 324 kts 329°
2026-05-05 02:42 43.34386 -79.38097 12422 ft 313 kts 329°
2026-05-05 02:42 43.36330 -79.39337 12289 ft 303 kts 329°
2026-05-05 02:42 43.38215 -79.40539 12061 ft 296 kts 328°
2026-05-05 02:43 43.40078 -79.41737 11724 ft 294 kts 328°
2026-05-05 02:43 43.41925 -79.42929 11371 ft 293 kts 328°
2026-05-05 02:43 43.43766 -79.44119 11009 ft 292 kts 328°
2026-05-05 02:43 43.45598 -79.45301 10663 ft 290 kts 328°
2026-05-05 02:44 43.47398 -79.46463 10319 ft 289 kts 328°
2026-05-05 02:44 43.49244 -79.47661 9632 ft 299 kts 328°
2026-05-05 02:44 43.51168 -79.48915 8793 ft 312 kts 328°
2026-05-05 02:44 43.53160 -79.50209 8139 ft 317 kts 328°
2026-05-05 02:45 43.55131 -79.51475 7948 ft 307 kts 328°
2026-05-05 02:45 43.57039 -79.52686 7743 ft 297 kts 329°
2026-05-05 02:45 43.59045 -79.53312 7574 ft 302 kts 357°
2026-05-05 02:45 43.61048 -79.52435 7396 ft 307 kts 30°
2026-05-05 02:46 43.62684 -79.50582 7218 ft 301 kts 41°
2026-05-05 02:46 43.64113 -79.48518 7051 ft 293 kts 46°
2026-05-05 02:46 43.65441 -79.46420 6893 ft 286 kts 47°
2026-05-05 02:46 43.66706 -79.44399 6725 ft 278 kts 47°
2026-05-05 02:47 43.67976 -79.42411 6569 ft 275 kts 46°
2026-05-05 02:47 43.69254 -79.40459 6412 ft 273 kts 46°
2026-05-05 02:47 43.70542 -79.38531 6258 ft 272 kts 46°
2026-05-05 02:47 43.71834 -79.36619 6088 ft 272 kts 45°
2026-05-05 02:48 43.73128 -79.34723 5934 ft 271 kts 45°
2026-05-05 02:48 43.74423 -79.32831 5782 ft 271 kts 45°
2026-05-05 02:48 43.75722 -79.30932 5632 ft 271 kts 45°
2026-05-05 02:48 43.77035 -79.29060 5465 ft 270 kts 38°
2026-05-05 02:49 43.78588 -79.27649 5292 ft 265 kts 18°
2026-05-05 02:49 43.80337 -79.27091 5000 ft 253 kts 351°
2026-05-05 02:49 43.81997 -79.27563 4646 ft 236 kts 324°
2026-05-05 02:49 43.83275 -79.28808 4515 ft 219 kts 302°
2026-05-05 02:50 43.84078 -79.30505 4351 ft 206 kts 282°
2026-05-05 02:50 43.84398 -79.32362 4207 ft 199 kts 271°
2026-05-05 02:50 43.84601 -79.34258 4050 ft 200 kts 271°
2026-05-05 02:50 43.84810 -79.36165 3895 ft 200 kts 271°
2026-05-05 02:51 43.85021 -79.38066 3742 ft 199 kts 270°
2026-05-05 02:51 43.84974 -79.39913 3585 ft 188 kts 251°
2026-05-05 02:51 43.84437 -79.41527 3474 ft 184 kts 233°
2026-05-05 02:51 43.83576 -79.42840 3376 ft 184 kts 227°
2026-05-05 02:52 43.82703 -79.44111 3267 ft 179 kts 228°
2026-05-05 02:52 43.81867 -79.45332 3170 ft 171 kts 227°
2026-05-05 02:52 43.81070 -79.46498 3093 ft 162 kts 227°
2026-05-05 02:52 43.80320 -79.47594 3041 ft 150 kts 228°
2026-05-05 02:53 43.79622 -79.48616 2999 ft 143 kts 228°
2026-05-05 02:53 43.78944 -79.49606 3009 ft 141 kts 228°
2026-05-05 02:53 43.78269 -79.50593 2977 ft 141 kts 227°
2026-05-05 02:53 43.77598 -79.51573 2862 ft 140 kts 227°
2026-05-05 02:54 43.76928 -79.52551 2707 ft 140 kts 227°
2026-05-05 02:54 43.76284 -79.53493 2545 ft 138 kts 227°
2026-05-05 02:54 43.75625 -79.54454 2372 ft 137 kts 226°
2026-05-05 02:54 43.74971 -79.55408 2186 ft 136 kts 225°
2026-05-05 02:55 43.74319 -79.56358 2006 ft 138 kts 225°
2026-05-05 02:55 43.73679 -79.57291 1820 ft 124 kts 225°
2026-05-05 02:55 43.73115 -79.58114 1666 ft 116 kts 224°
2026-05-05 02:55 43.72562 -79.58919 1516 ft 117 kts 225°
2026-05-05 02:56 43.71984 -79.59761 1360 ft 124 kts 223°
2026-05-05 02:56 43.71362 -79.60665 1171 ft 134 kts 225°
2026-05-05 02:56 43.70722 -79.61613 1119 ft 137 kts 224°
2026-05-05 02:56 43.70065 -79.62570 893 ft 140 kts 223°
2026-05-05 02:57 43.69395 -79.63537 690 ft 138 kts 224°
2026-05-05 02:57 43.68761 -79.64469 573 ft 124 kts 222°
2026-05-05 02:57 43.68219 -79.65216 570 ft 85 kts 224°
2026-05-05 02:57 43.67994 -79.65442 564 ft 13 kts 179°
2026-05-05 02:58 43.67945 -79.65481 560 ft 8 kts 188°
2026-05-05 02:58 43.67890 -79.65491 565 ft 8 kts 181°
2026-05-05 02:58 43.67846 -79.65462 567 ft 7 kts 139°
2026-05-05 02:58 43.67833 -79.65416 569 ft 3 kts 97°
2026-05-05 02:59 43.67862 -79.65353 570 ft 13 kts 46°
2026-05-05 02:59 43.67921 -79.65267 570 ft 11 kts 46°
2026-05-05 02:59 43.67971 -79.65194 567 ft 10 kts 46°
2026-05-05 02:59 43.68017 -79.65128 569 ft 9 kts 46°
2026-05-05 03:00 43.68054 -79.65075 569 ft 6 kts 46°
2026-05-05 03:00 43.68080 -79.65037 569 ft 10 kts 46°
2026-05-05 03:00 43.68175 -79.64899 568 ft 27 kts 46°
2026-05-05 03:00 43.68306 -79.64710 569 ft 28 kts 46°
2026-05-05 03:01 43.68447 -79.64505 567 ft 30 kts 46°
2026-05-05 03:01 43.68597 -79.64286 572 ft 32 kts 46°
2026-05-05 03:01 43.68751 -79.64063 574 ft 32 kts 45°
2026-05-05 03:01 43.68884 -79.63868 570 ft 28 kts 47°
2026-05-05 03:02 43.69022 -79.63670 567 ft 22 kts 46°
2026-05-05 03:02 43.68994 -79.63565 569 ft 14 kts 137°
2026-05-05 03:02 43.68918 -79.63471 566 ft 17 kts 139°
2026-05-05 03:02 43.68788 -79.63298 566 ft 35 kts 137°
2026-05-05 03:03 43.68587 -79.63057 568 ft 38 kts 136°
2026-05-05 03:03 43.68409 -79.62804 564 ft 36 kts 137°
2026-05-05 03:03 43.68243 -79.62587 564 ft 29 kts 137°
2026-05-05 03:03 43.68092 -79.62395 563 ft 30 kts 138°
2026-05-05 03:04 43.67939 -79.62198 572 ft 30 kts 142°
2026-05-05 03:04 43.67776 -79.62051 566 ft 28 kts 138°
2026-05-05 03:04 43.67643 -79.61876 570 ft 16 kts 134°
2026-05-05 03:04 43.67574 -79.61778 567 ft 13 kts 109°
2026-05-05 03:05 43.67625 -79.61680 563 ft 14 kts 35°
2026-05-05 03:05 43.67712 -79.61657 564 ft 13 kts 342°
2026-05-05 03:05 43.67779 -79.61603 569 ft 11 kts 47°
2026-05-05 03:05 43.67829 -79.61529 569 ft 10 kts 47°
2026-05-05 03:06 43.67877 -79.61473 568 ft 8 kts 19°
2026-05-05 03:06 43.67919 -79.61501 564 ft 6 kts 325°
2026-05-05 03:06 43.67944 -79.61520 570 ft 0 kts 330°